Hourly Data Report for October 06, 2017

All times are specified in Local Standard Time (LST). Add 1 hour to adjust for Daylight Saving Time where and when it is observed.

NORTH BAY A
ONTARIO

46°21'50.000" N
79°25'27.000" W
370.30 m
6085680
71731
YYB

Download Data

Hourly Data (October 2017)
Hourly Data Report for October 6, 2017
Temp Definition
°C
Dew Point Temp Definition
°C
Rel Hum Definition
%
Wind Dir Definition
10's deg

Wind Spd Definition
km/h
Visibility Definition
km
Stn Press Definition
kPa
Hmdx Definition


Wind Chill Definition


Weather Definition


TIME
00:00 Legend Double Dagger 9.3 6.6 83 28 11 16.1 97.25     LegendNANA
01:00 Legend Double Dagger 8.1 5.9 86 30 11 16.1 97.25     LegendNANA
02:00 Legend Double Dagger 6.9 5.4 90 29 5 16.1 97.26     LegendNANA
03:00 Legend Double Dagger 5.7 4.5 92 31 11 16.1 97.24     LegendNANA
04:00 Legend Double Dagger 6.6 4.9 89 28 8 16.1 97.28     LegendNANA
05:00 Legend Double Dagger 5.9 4.6 91 31 9 16.1 97.30     LegendNANA
06:00 Legend Double Dagger 5.1 3.9 92 31 8 16.1 97.34     LegendNANA
07:00 Legend Double Dagger 4.8 3.9 94 31 5 16.1 97.38     LegendNANA
08:00 Legend Double Dagger 7.2 5.4 88 32 9 16.1 97.41     LegendNANA
09:00 Legend Double Dagger 9.5 5.8 78 31 8 16.1 97.45     LegendNANA
10:00 Legend Double Dagger 11.3 4.5 63 31 15 16.1 97.47     LegendNANA
11:00 Legend Double Dagger 12.4 3.3 54 29 5 16.1 97.44     LegendNANA
12:00 Legend Double Dagger 12.8 5.4 61 19 17 16.1 97.41     LegendNANA
13:00 Legend Double Dagger 13.4 5.2 58 23 15 16.1 97.37     LegendNANA
14:00 Legend Double Dagger 13.7 3.9 51 22 15 16.1 97.34     LegendNANA
15:00 Legend Double Dagger 14.0 3.7 50 22 15 16.1 97.30     LegendNANA
16:00 Legend Double Dagger 13.9 1.5 43 23 15 16.1 97.25     LegendNANA
17:00 Legend Double Dagger 13.1 2.2 47 27 9 16.1 97.23     LegendNANA
18:00 Legend Double Dagger 9.0 4.6 74 34 4 16.1 97.21     LegendNANA
19:00 Legend Double Dagger 6.9 4.1 82 10 4 16.1 97.23     LegendNANA
20:00 Legend Double Dagger 8.3 3.4 71 15 4 16.1 97.28     LegendNANA
21:00 Legend Double Dagger 7.3 3.3 75 14 9 16.1 97.26     LegendNANA
22:00 Legend Double Dagger 7.2 3.8 79 10 8 16.1 97.21     LegendNANA
23:00 Legend Double Dagger 6.9 4.1 82 10 9 16.1 97.14     LegendNANA

Notes on Data Quality.

Legend

  • E = Estimated
  • M = Missing
  • NA = Not Available
  • ‡ = Partner data that is not subject to review by the National Climate Archives
Date modified: